This is the latest recevied weather packets stored in our database for station/object N4OOJ-13. If no packets are shown the sender has not sent any weather packets the latest 10 day(s).
| Time | Temp. | Humidity | Pressure | Rain* | Wind** | Luminosity | Snow |
|---|---|---|---|---|---|---|---|
| 1788136217 | 25.56° C | 97% | 1020.7 hPa | 0 mm | - | - | - |
| 1788135624 | 25.56° C | 96% | 1020.6 hPa | 0 mm | - | - | - |
| 1788135018 | 25.56° C | 95% | 1020.6 hPa | 0 mm | - | - | - |
| 1788134420 | 26.11° C | 94% | 1020.5 hPa | 0 mm | - | - | - |
| 1788133833 | 26.11° C | 93% | 1020.4 hPa | 0 mm | - | - | - |
| 1788133228 | 26.67° C | 91% | 1020.5 hPa | 0 mm | - | - | - |
| 1788132625 | 27.22° C | 89% | 1020.4 hPa | 0 mm | - | - | - |
| 1788132018 | 27.78° C | 88% | 1020.6 hPa | 0 mm | - | - | - |
| 1788131432 | 27.78° C | 87% | 1020.6 hPa | 0 mm | - | - | - |
| 1788130828 | 28.33° C | 84% | 1020.6 hPa | 0 mm | - | - | - |
| 1788130228 | 28.33° C | 85% | 1020.5 hPa | 0 mm | - | - | - |
| 1788129628 | 28.33° C | 84% | 1020.6 hPa | 0 mm | - | - | - |
| 1788129028 | 28.33° C | 84% | 1020.6 hPa | 0 mm | - | - | - |
| 1788128420 | 28.89° C | 80% | 1020.6 hPa | 0 mm | - | - | - |
| 1788127833 | 30° C | 81% | 1020.6 hPa | 0 mm | - | - | - |
| 1788127223 | 30° C | 78% | 1020.6 hPa | 0 mm | - | - | - |
| 1788126622 | 29.44° C | 78% | 1020.7 hPa | 0 mm | - | - | - |
| 1788126030 | 30° C | 76% | 1020.7 hPa | 0 mm | - | - | - |
| 1788125429 | 30° C | 73% | 1020.9 hPa | 0 mm | - | - | - |
| 1788124828 | 30° C | 76% | 1020.9 hPa | 0 mm | - | - | - |
| 1788124226 | 30.56° C | 75% | 1020.9 hPa | 0 mm | - | - | - |
| 1788123619 | 31.11° C | 75% | 1020.9 hPa | 0 mm | - | - | - |
| 1788123025 | 31.11° C | 75% | 1021 hPa | 0 mm | - | - | - |
| 1788122420 | 31.11° C | 77% | 1021.1 hPa | 0 mm | - | - | - |
| 1788121821 | 30.56° C | 78% | 1021.2 hPa | 0 mm | - | - | - |
* Rain latest hour (hover to see other rain measurements)
** Current wind speed in m/s (hover to see current wind gust speed)